Location: Harwich
(41.7160°N, 69.9939°W)
Time: 15:07:06
(UTC+01:00)

A-11 Canister half - Pass Details

Date: 05 December 2023
Orbit: 1526 x 1682 km, 47.3° (Epoch: 01 March)

Event Time Altitude Azimuth Distance (km) Brightness Sun altitude
Rises 01:20:05 0° 242° (WSW) 4,921 12.5 -34.8°
Reaches altitude 10° 01:23:14 10° 243° (WSW) 3,938 11.8 -35.4°
Maximum altitude 01:33:26 89° 332° (NNW) 1,679 9.0 -37.3°
Enters shadow 01:33:35 88° 30° (NNE) 1,680 8.9 -37.3°
Drops below altitude 10° 01:43:32 10° 65° (ENE) 3,896 - -39.2°
Sets 01:46:38 0° 66° (ENE) 4,867 - -39.8°
